Location: Munkebjergskolens Observatorium
(55.3864°N, 10.3987°E)
Time: 05:27:26
(UTC+02:00)

CAS-6 - Pass Details

Date: 07 April 2023
Orbit: 610 x 632 km, 97.9° (Epoch: 31 May)

Event Time Altitude Azimuth Distance (km) Brightness Sun altitude
Exits shadow 23:47:34 51° 251° (WSW) 791 ? -24.7°
Maximum altitude 23:47:44 52° 260° (W) 788 ? -24.7°
Drops below altitude 10° 23:52:02 10° 337° (NNW) 2,022 ? -25.0°
Sets 23:54:18 0° 343° (NNW) 2,937 ? -25.1°
